SL-16 DEB, 22436

Orbit data source: Space-Track

SL-16 DEB, 22436 is space debris in LEO originally from a launch on Fri, 25 Dec 1992 UTC launched from the Tyuratam Missile And Space Complex (TTMTR). Debris objects in space refer to the collection of defunct objects orbiting the Earth. Examples of debris include non-operational satellites, rocket bodies, and fragments generated from explosions, collisions, or faulty payload assembly.

Loading next visibility...
Identifier
22436, 1992-093ED
Orbit
LEO
Country
Flag of CISCIS
Related business
Manufacturer
Unknown
Mission
Spacecraft
Bus & Motor
Unknown
Mass
Unknown
Launch date (UTC)
1992-12-25 (33 years ago)
Launch vehicle
Unknown
Launch site
Tyuratam Missile And Space Complex (TTMTR)
Object type
Payload
Rocket body
Debris
Shape & HBR
Unknown shape, 0.1 m
Radar Cross Section
Small (<0.1 m²)

Expand to show TLE details & history
Last TLE update: 17 hours ago

TLE from 17 hours ago
0 SL-16 DEB
1 22436U 92093ED  25296.47994248  .00008538  00000-0  11207-2 0  9998
2 22436  71.5073 330.8556 0035587 121.5282   2.1602 14.80062649730417
Epoch: 2025-10-23T11:31Z
TLE epoch observation values (Epoch: 2025-10-23T11:31:07.030Z)
Latitude
52.20294°
Longitude
-79.45846°
Altitude
612.177 km
Speed
7.572 km/s
True Right ascension
08h 21m 50s
True Declination
52° 01' 58"
Sunlit
Object was in daylight at epoch
Visualization orbit readout
Latitude
Unknown
Longitude
Unknown
Altitude
Unknown
Speed
Unknown
Apparent Right ascension
Unknown
Apparent Declination
Unknown
Sunlit
N/A
Visualization observer readout
Local Sidereal Time
23:59:44
Azimuth
Unknown
Elevation
Unknown
Doppler factor
Unknown
Orbital elements
Apogee altitude
651.866 km
Perigee altitude
602.008 km
Semi-major axis
7,005.074 km
Eccentricity
0.00356
Inclination
71.5073°
RAAN
330.8556°
Arg. of periapsis
121.5282°
True anomaly
2.17564°
Mean anomaly
2.1602°
Eccentric anomaly
2.16791°
Mean motion
3.70189 °/min
Orbital period
97.25 mins
BSTAR
0.0011207
Loading maneuver chart data...
Computing Atmospheric mass density...
Loading historical data...
Loading historical data...
Loading historical data...
Loading historical data...
Loading historical data...
Loading historical data...
Loading historical data...

Documentation

Showing up to 5 results
|